星链-31918 (STARLINK-31918 )

导读 | 豆包AI

STARLINK-31918是美国于2024年6月8日发射的星链卫星,隶属于SpaceX公司的星链互联网星座项目。星链计划旨在通过近地轨道卫星群,为全球提供高速互联网络服务,该卫星的发射进一步扩充了星链星座的卫星规模,提升了星座的覆盖能力与服务稳定性。

基本信息
目录编号:
60037
目录名称:
STARLINK-31918
国际标识:
2024-111X
轨道中心:
EARTH
卫星名称:
星链-31918
卫星全名:
星链-31918 (STARLINK-31918 )
卫星状态:
在轨 (已飞行692 天)
发射日期:
2024-06-08 UTC
国别 :
美国 (US)
星等 :
--
轨道信息
数据来源 国际轨道数据 AOE轨道数据
星历时间 2026-04-30T19:10:00+0800
15小时前
查看轨道信息
2026-04-25T07:00:00+0800
6天前
查看轨道信息
半长轴 6853.393km 6853.319km
偏心率 0.000137 0.000118
轨道倾角 53.161° 53.158°
近地点辐角 88.873° 49.929°
升交点赤经 194.910° 220.492°
平近点角 271.243° 197.178°
近地点 474.317km 474.373km
远地点 476.195km 475.991km
周期 94.106分钟 94.105分钟
每日圈数 15.301863 15.302111
详细信息
固有亮度:
5
最大亮度:
1.5
卫星平台:
Starlink v2.0 mini
覆盖范围:
全球
运营商:
太空探索技术公司
运营商所在国:
美国
制造商(研发单位):
太空探索技术公司
制造商所在国:
美国
使用方式:
暂无
卫星简介
星链(Starlink)计划是由太空探索技术公司(SpaceX)提出的一个巨型低轨卫星互联网星座项目,计划在2019年至2024年间在太空搭建由约1.2万颗卫星组成的“星链”网络,其中1584颗将部署在地球上空550千米处的近地轨道,并从2020年开始工作。该卫星仍在工作。
2D轨道图
3D轨道图
轨道高度分析图
轨道倾角分析图
轨道综合分析图
查看轨道综合分析图